BREEZE-M DEB (TANK), 42908

Orbit data source: Space-Track

BREEZE-M DEB (TANK), 42908 is space debris in HEO originally from a launch on Wed, 16 Aug 2017 UTC launched from the Tyuratam Missile And Space Complex (TTMTR). Debris objects in space refer to the collection of defunct objects orbiting the Earth. Examples of debris include non-operational satellites, rocket bodies, and fragments generated from explosions, collisions, or faulty payload assembly.

Loading next visibility...
Identifier
42908, 2017-046B
Orbit
HEO
Last TLE update
15 hours ago
Origin
Manufacturer
Khrunichev
Mission
Spacecraft
Bus & Motor
BRIZ TANK, Unknown motor
Mass
~1,000 kg wet, 1,000 kg dry
Launch date (UTC)
2017-08-16 (8 years ago)
Launch vehicle
Unknown
Launch site
Tyuratam Missile And Space Complex (TTMTR)
Object type
Payload
Rocket body
Debris
Shape & HBR
Torus, 4 m
Radar Cross Section
8.218 m², Large (>1 m²)

Expand to show TLE details & history

TLE from 15 hours ago
0 BREEZE-M DEB (TANK)
1 42908U 17046B   25181.56193984  .00000048  00000-0  58830-3 0  9992
2 42908  48.4071 239.2863 7125134 355.9293   0.6251  2.37902863 66849
Epoch: 2025-06-30T13:29Z
TLE epoch observation values (Epoch: 2025-06-30T13:29:11.602Z)
Latitude
-0.00038°
Longitude
118.1286°
Altitude
438.925 km
Speed
10.007 km/s
True Right ascension
15h 57m 11s
True Declination
0° 00' 01"
Sunlit
Object was in full shadow at epoch
Visualization orbit readout
Latitude
4.52679°
Longitude
-66.07114°
Altitude
34,142.228 km
Speed
1.691 km/s
Apparent Right ascension
03h 42m 18s
Apparent Declination
-1° 06' 31"
Sunlit
Object is in daylight
Visualization observer readout
Local Sidereal Time
15:58:08
Azimuth
6.301° NNE
Elevation
-51.025°
Doppler factor
1
Orbital elements
Apogee altitude
34,214.959 km
Perigee altitude
436.391 km
Semi-major axis
23,703.812 km
Eccentricity
0.71251
Inclination
48.4071°
RAAN
239.2863°
Arg. of periapsis
355.9293°
True anomaly
Unknown
Mean anomaly
0.6251°
Eccentric anomaly
Unknown
Mean motion
0.59472 °/min
Orbital period
605.32 mins
BSTAR
0.0005883
Loading maneuver chart data...
Loading SW <> Apogee altitude chart data...
Loading historical data...
Loading historical data...
Loading historical data...
Loading historical data...
Loading historical data...
Loading historical data...
Loading historical data...
Other satellites on launch #46 in the year 2017 (2017-08-16 UTC)

BREEZE-M DEB (TANK) Visibility forecast

Observer location: undefined°, undefined°

Span
Click to sort rows by Start time (UTC) header in descending order
Start Az.
Max El. time (UTC)
Max El. Az.
Max El.
End time (UTC)
End Az.
495 mins2025-07-01 09:52:41.725Z279.509° WNW2025-07-01 10:07:41.725Z8.019° NNE43.583°2025-07-01 18:07:41.725Z182.442° SSW
|